Regional Weather Roundup
Issued by NWS Sioux Falls, SD

Home | Current Version | Previous Version | Text Only | Print | Product List | Glossary Off
Versions: 1 2 3 4 5 6 7 8 9 10 11 12 13 14 15 16 17 18 19 20 21 22 23 24 25 26 27 28 29 30 31 32 33 34 35 36 37 38 39 40 41 42 43 44 45 46 47 48 49 50

470
ASUS43 KFSD 262302
RWRFSD

WEATHER ROUNDUP FOR SE SOUTH DAKOTA/SW MINNESOTA/NW IOWA
NATIONAL WEATHER SERVICE SIOUX FALLS SD
600 PM CDT WED JUL 26 2017

NOTE: "FAIR" INDICATES FEW OR NO CLOUDS BELOW 12,000 FEET WITH NO
SIGNIFICANT WEATHER AND OR OBSTRUCTIONS TO VISIBILITY.


SDZ038>040-050-052>070-270000-
SOUTHEAST SOUTH DAKOTA

CITY           SKY/WX    TMP DP  RH WIND       PRES   REMARKS
BROOKINGS      MOSUNNY   79  59  50 N9        30.07F
CHAMBERLAIN    SUNNY     87  59  38 E12       30.07S
HURON          SUNNY     83  61  47 N6        30.06S
MADISON        FAIR      77  61  57 NE13      30.08S
MITCHELL       SUNNY     83  60  45 NE12      30.06S
SIOUX FALLS    MOSUNNY   82  64  54 N13       30.04S
WINNER         FAIR      88  57  34 E16       30.08S
YANKTON        MOSUNNY   84  67  56 N12       30.02S
$$

MNZ071-072-080-081-089-090-097-098-270000-
SOUTHWEST MINNESOTA

CITY           SKY/WX    TMP DP  RH WIND       PRES   REMARKS
FAIRMONT       SUNNY     81  69  67 N10       30.00S
JACKSON        SUNNY     79  64  61 N9        30.03S
LUVERNE        SUNNY     79  59  50 NE7       30.04S
MARSHALL       SUNNY     79  64  60 N9        30.04S
MONTEVIDEO     MOSUNNY   84  63  48 N13       30.04S
PIPESTONE      SUNNY     81  57  44 NE8       30.07S
REDWOOD FALLS  SUNNY     81  61  50 N7        30.02S
TRACY          SUNNY     79  64  59 N10       30.04S
WINDOM         SUNNY     81  63  54 N12       30.03S
WORTHINGTON    SUNNY     80  64  58 N12       30.04S
$$

IAZ001>003-012>014-020>022-031-032-NEZ013-014-SDZ071-270000-
NORTHWEST IOWA

CITY           SKY/WX    TMP DP  RH WIND       PRES   REMARKS
CHEROKEE       MOSUNNY   83  71  67 E6        30.00R
DENISON        CLOUDY    79  72  78 CALM      30.01S
ESTHERVILLE    PTSUNNY   81  71  71 N12       30.00S
ORANGE CITY    SUNNY     82  70  65 NE9       30.01S
SHELDON        MOSUNNY   81  70  69 NE9       30.01R
SIOUX CITY     PTSUNNY   84  71  65 E6        29.99R
SPENCER        PTSUNNY   79  71  76 E6        30.01S
STORM LAKE       N/A     77  72  83 SE5       30.01R
$$

ABBREVIATIONS USED IN REMARKS
   TC - TEMPERATURE IN CELSIUS
  WCI - WIND CHILL INDEX
   HX - HEAT INDEX
  VSB - VISIBILITY





USA.gov is the U.S. government's official web portal to all federal, state and local government web resources and services.